TimeCST,TemperatureF,Dew PointF,Humidity,Sea Level PressureIn,VisibilityMPH,Wind Direction,Wind SpeedMPH,Gust SpeedMPH,PrecipitationIn,Events,Conditions,WindDirDegrees,DateUTC
12:53 AM,34.0,28.9,82,30.16,10.0,Calm,Calm,-,N/A,,Clear,0,2013-02-12 06:53:00
1:53 AM,33.1,28.0,82,30.17,10.0,NW,3.5,-,N/A,,Clear,310,2013-02-12 07:53:00
2:53 AM,32.0,28.0,85,30.16,10.0,Calm,Calm,-,N/A,,Clear,0,2013-02-12 08:53:00
3:53 AM,33.1,28.0,82,30.16,10.0,Calm,Calm,-,N/A,,Clear,0,2013-02-12 09:53:00
4:53 AM,32.0,28.0,85,30.15,10.0,NNW,4.6,-,N/A,,Clear,340,2013-02-12 10:53:00
5:53 AM,30.0,27.0,88,30.14,10.0,Calm,Calm,-,N/A,,Clear,0,2013-02-12 11:53:00
6:53 AM,30.0,26.1,85,30.13,10.0,North,3.5,-,N/A,,Clear,350,2013-02-12 12:53:00
7:53 AM,35.1,28.0,76,30.14,10.0,Calm,Calm,-,N/A,,Clear,0,2013-02-12 13:53:00
8:53 AM,42.1,28.9,60,30.15,10.0,NE,6.9,-,N/A,,Clear,50,2013-02-12 14:53:00
9:53 AM,45.0,30.9,58,30.11,10.0,NE,9.2,-,N/A,,Clear,50,2013-02-12 15:53:00
10:53 AM,46.0,33.1,61,30.13,10.0,NE,6.9,-,N/A,,Clear,40,2013-02-12 16:53:00
11:53 AM,48.0,32.0,54,30.13,10.0,ENE,6.9,-,N/A,,Clear,60,2013-02-12 17:53:00
12:53 PM,48.0,33.1,56,30.10,10.0,NE,5.8,-,N/A,,Clear,40,2013-02-12 18:53:00
1:53 PM,48.9,33.1,54,30.04,10.0,ENE,8.1,-,N/A,,Scattered Clouds,60,2013-02-12 19:53:00
2:53 PM,48.9,30.9,50,29.99,10.0,ENE,8.1,-,N/A,,Clear,70,2013-02-12 20:53:00
3:53 PM,48.9,35.1,59,30.00,10.0,NNE,4.6,-,N/A,,Overcast,30,2013-02-12 21:53:00
4:53 PM,48.0,34.0,58,29.98,10.0,ENE,6.9,-,N/A,,Overcast,60,2013-02-12 22:53:00
5:53 PM,46.9,35.1,63,29.96,10.0,ENE,4.6,-,N/A,,Overcast,60,2013-02-12 23:53:00
6:53 PM,46.0,35.1,66,29.94,10.0,NE,5.8,-,N/A,,Overcast,50,2013-02-13 00:53:00
7:53 PM,45.0,35.1,68,29.91,10.0,NE,5.8,-,N/A,,Overcast,50,2013-02-13 01:53:00
8:53 PM,45.0,35.1,68,29.89,10.0,North,9.2,-,N/A,,Overcast,10,2013-02-13 02:53:00
9:53 PM,44.1,35.1,71,29.90,10.0,North,5.8,-,N/A,,Overcast,10,2013-02-13 03:53:00
10:53 PM,45.0,34.0,65,29.91,10.0,North,5.8,-,0.00,Rain,Light Rain,350,2013-02-13 04:53:00
11:43 PM,42.8,35.6,76,29.91,8.0,Calm,Calm,-,0.02,Rain,Light Rain,0,2013-02-13 05:43:00
11:53 PM,43.0,35.1,74,29.92,8.0,ENE,3.5,-,0.02,Rain,Light Rain,70,2013-02-13 05:53:00